Regional Weather Roundup
Issued by NWS

Home | Current Version | Previous Version | Text Only | Print | Product List | Glossary On
Versions: 1 2 3 4 5 6 7 8 9 10 11 12 13 14 15 16 17 18 19 20 21 22 23 24 25 26 27 28 29 30 31 32 33 34 35 36 37 38 39 40 41 42 43 44 45 46 47 48 49 50
000
ASUS46 KSEW 041010
RWRWA

WASHINGTON REGIONAL WEATHER ROUNDUP
NATIONAL WEATHER SERVICE SEATTLE WA
300 AM PDT MON MAY 04 2015

NOTE:"FAIR" INDICATES FEW OR NO CLOUDS BELOW 12,000 FEET WITH NO
SIGNIFICANT WEATHER AND/OR OBSTRUCTIONS TO VISIBILITY.

WAZ505-507>509-041100-
SEATTLE, TACOMA, EVERETT, AND VICINITY

CITY           SKY/WX    TMP DP  RH WIND       PRES   REMARKS
EVERETT        CLEAR     50  38  63 CALM      29.88S
BOEING FIELD   CLEAR     51  40  65 CALM      29.88S
RENTON         CLEAR     47  41  80 SE3       29.88F
SEATAC AIRPORT CLEAR     50  39  66 CALM      29.88F
JBLM-MCCHORD   CLEAR     38  36  92 S3        29.88S
PUYALLUP       FAIR      41  41 100 CALM      29.89S
BREMERTON      CLEAR     39  37  93 CALM      29.91S
JBLM-FT LEWIS  CLEAR     40  38  93 SE8       29.88S
TACOMA NARROWS CLEAR     48  41  76 W5        29.89S
$$

WAZ001-503-506-510-514-515-041100-
NORTH INTERIOR

CITY           SKY/WX    TMP DP  RH WIND       PRES   REMARKS
BELLINGHAM     CLEAR     44  41  89 CALM      29.86S
FRIDAY HARBOR  CLEAR     44  42  93 CALM      29.87S
EASTSOUND      CLEAR     48  41  76 MISG      29.84S
PORT ANGELES   CLEAR     47  41  80 W8        29.88S
NAS WHIDBEY    CLEAR     47  42  83 SE5       29.88S
ARLINGTON      CLEAR     41  36  81 CALM      29.89F
BURLINGTON     CLEAR     45  43  93 CALM      29.88S
$$

WAZ020-022-039-040-504-511-512-041100-
SOUTHWEST INTERIOR

CITY           SKY/WX    TMP DP  RH WIND       PRES   REMARKS
SHELTON        CLOUDY    45  43  93 SW7       29.88R
OLYMPIA        CLEAR     42  39  89 CALM      29.90S
CHEHALIS       FAIR      41  41 100 CALM      29.90S
KELSO          CLEAR     46  39  76 CALM      29.95S
VANCOUVER      CLEAR     46  39  76 CALM      29.89R
SCAPPOOSE, OR  CLEAR     45  42  89 SW3       29.89R
PORTLAND, OR   CLEAR     51  42  71 CALM      29.90R
$$

WAZ021-516-517-041100-
WASHINGTON COAST

CITY           SKY/WX    TMP DP  RH WIND       PRES   REMARKS
FORKS          CLOUDY    45  44  97 CALM      29.90F
HOQUIAM        CLOUDY    51  46  83 W6        29.92R
ASTORIA, OR    CLOUDY    49  45  86 W5        29.93S
$$

WAZ019-023-024-040-518-519-041100-
CASCADE MOUNTAINS AND COLUMBIA GORGE

CITY           SKY/WX    TMP DP  RH WIND       PRES   REMARKS
TROUTDALE, OR  CLEAR     49  44  83 CALM      29.88S
THE DALLES, OR CLEAR     47  36  65 SE5       29.85S
$$

WAZ026-027-041>044-520-521-041100-
EAST SLOPES

CITY           SKY/WX    TMP DP  RH WIND       PRES   REMARKS
OMAK           CLEAR     41  31  67 NW5       29.87R
WENATCHEE      CLEAR     54  33  45 N8        29.86R
ELLENSBURG     CLEAR     41  31  67 CALM      29.86S
YAKIMA         CLEAR     42  33  70 W7        29.86R
$$

WAZ028-034-035-041100-
COLUMBIA BASIN

CITY           SKY/WX    TMP DP  RH WIND       PRES   REMARKS
EPHRATA        CLEAR     50  28  42 N7        29.84S
MOSES LAKE     CLEAR     43  31  62 N7        29.85S
PASCO          CLEAR     46  37  71 E3        29.84S
HERMISTON, OR  CLEAR     39  33  79 SE5       29.83F
$$

WAZ036>038-041100-
NORTHEAST WASHINGTON

CITY           SKY/WX    TMP DP  RH WIND       PRES   REMARKS
SPOKANE GEIGER CLEAR     45  31  58 NE5       29.87S
SPOKANE FELTS  CLEAR     41  33  73 CALM      29.89S
FAIRCHILD AFB  CLEAR     44  29  54 NE8       29.87S
COEURDALENE,ID CLEAR     39  30  70 E8        29.90S
DEER PARK      CLEAR     34  28  79 CALM      29.88F
$$

WAZ029>033-041100-
SOUTHEAST WASHINGTON

CITY           SKY/WX    TMP DP  RH WIND       PRES   REMARKS
PULLMAN        CLEAR     36  27  69 CALM      29.89S
LEWISTON, ID   CLEAR     49  29  46 CALM      29.87R
WALLA WALLA    CLEAR     53  33  46 E8        29.83F
PENDLETON, OR  CLEAR     43  34  70 E9        29.84F
$$


USA.gov is the U.S. government's official web portal to all federal, state and local government web resources and services.